Home   Weather   Umm al-Quwain   Past weeks

Flag for United Arab Emirates Past Weather in Umm al-Quwain, Umm al-Quwain, United Arab Emirates — Yesterday and Last 2 Weeks

Now
86 °F

Clear.


Feels Like: 88 °F
Forecast: 78 / 89 °F
Wind: 7 mph from South

Location: Sharjah International Airport

Current Time: Apr 26, 2017 at 10:08:03 pm

Latest Report: Apr 26, 2017 at 9:00 pm


Visibility: 10 mi

Pressure: 29.77 "Hg

Humidity: 52%

Dew Point: 66 °F

Location of Umm al-QuwainLocation

Past Weather in Umm al-Quwain — Graph

°F

Umm al-Quwain Temperature Yesterday

Maximum temperature yesterday: 100 °F (at 11:00 am)
Minimum temperature yesterday: 70 °F (at 5:00 am)
Average temperature yesterday: 86 °F

High & Low Weather Summary for the Past Weeks

 TemperatureHumidityPressure
High104 °F (Apr 12, 12:00 pm)94% (Apr 17, 8:00 am)29.95 "Hg (Apr 17, 8:00 am)
Low70 °F (Apr 16, 5:00 am)7% (Apr 25, 12:00 pm)29.68 "Hg (Apr 15, 3:00 pm)
Average84 °F47%29.78 "Hg
* Reported Apr 11 9:00 pm — Apr 26 9:00 pm, Umm al-Quwain, Weather by CustomWeather, © 2017

Note: Actual official high and low records may vary slightly from our data, if they occured in-between our weather recording intervals... More about our weather records

Advertising

Umm al-Quwain Weather History for the Previous 24 Hours

Scroll right to see more
 ConditionsComfort  
Time TempWeatherWind HumidityBarometerVisibility
9:00 pm
Wed, Apr 26
86 °FClear.7 mph52%29.77 "Hg10 mi
8:00 pm88 °FClear.7 mph49%29.77 "Hg10 mi
7:00 pm88 °FClear.7 mph52%29.77 "Hg10 mi
6:00 pm90 °FSunny.9 mph46%29.77 "Hg10 mi
5:00 pm90 °FSunny.9 mph43%29.77 "Hg10 mi
4:00 pm93 °FSunny.15 mph23%29.77 "Hg10 mi
3:00 pm97 °FSunny.14 mph16%29.77 "Hg10 mi
2:00 pm99 °FSunny.15 mph9%29.77 "Hg10 mi
1:00 pm99 °FSunny.14 mph10%29.80 "Hg10 mi
12:00 pm97 °FPassing clouds.10 mph12%29.80 "HgN/A
11:00 am95 °FPassing clouds.5 mph11%29.83 "HgN/A
10:00 am91 °FPassing clouds.5 mph14%29.83 "HgN/A
9:00 am88 °FPassing clouds.3 mph17%29.80 "HgN/A
8:00 am81 °FSunny.2 mph23%29.80 "Hg10 mi
7:00 am70 °FSunny.3 mph38%29.77 "Hg10 mi
6:00 am73 °FSunny.8 mph29%29.74 "Hg10 mi
5:00 am70 °FClear.5 mph35%29.74 "Hg10 mi
4:00 am75 °FPassing clouds.5 mph27%29.74 "HgN/A
3:00 am77 °FClear.6 mph28%29.74 "Hg10 mi
2:00 am73 °FClear.7 mph33%29.74 "Hg10 mi
1:00 am75 °FClear.6 mph34%29.77 "Hg10 mi
12:00 am75 °FClear.3 mph36%29.77 "Hg10 mi
11:00 pm
Tue, Apr 25
79 °FClear.1 mph30%29.80 "Hg10 mi
10:00 pm77 °FClear.3 mph34%29.80 "Hg10 mi
Weather by CustomWeather, © 2017

See weather overviewHow to use our weather pages